OE3PDB-4 Weather Reports


time (UTC)temp
C
wind
direction
speed
KPH
gust
KPH
rain 1hr
cm
rain 24hr
cm
rain mn
cm
humidity
%
barometer
mb
20260506155958 25 247 0.0 3.2 0.00 0.00 0.00 39 1005.1
20260506154958 25 315 0.0 0.0 0.00 0.00 0.00 39 1005.1
20260506153958 25 337 0.0 0.0 0.00 0.00 0.00 38 1005.1
20260506152958 25 225 1.6 1.6 0.00 0.00 0.00 38 1005.1
20260506151958 25 157 3.2 3.2 0.00 0.00 0.00 37 1005.1
20260506150958 25 247 0.0 1.6 0.00 0.00 0.00 37 1005.2
20260506145958 26 315 0.0 1.6 0.00 0.00 0.00 37 1005.1
20260506144958 26 225 0.0 0.0 0.00 0.00 0.00 36 1005.1
20260506143958 26 180 1.6 3.2 0.00 0.00 0.00 36 1005.0
20260506142958 26 270 0.0 0.0 0.00 0.00 0.00 36 1005.1
20260506141958 26 180 0.0 1.6 0.00 0.00 0.00 36 1005.1
20260506140958 26 157 0.0 3.2 0.00 0.00 0.00 37 1005.2
20260506135958 26 157 0.0 0.0 0.00 0.00 0.00 36 1005.2
20260506134958 26 135 0.0 3.2 0.00 0.00 0.00 36 1005.3
20260506133958 26 180 1.6 1.6 0.00 0.00 0.00 35 1005.5
20260506132958 26 292 3.2 3.2 0.00 0.00 0.00 37 1005.6
20260506131958 25 225 0.0 0.0 0.00 0.00 0.00 37 1005.6
20260506130958 24 337 0.0 0.0 0.00 0.00 0.00 38 1005.7
20260506125958 23 292 0.0 0.0 0.00 0.00 0.00 39 1005.9
20260506124958 23 157 0.0 0.0 0.00 0.00 0.00 39 1005.9
20260506123958 23 157 0.0 3.2 0.00 0.00 0.00 39 1006.1
20260506122958 23 157 0.0 0.0 0.00 0.00 0.00 39 1006.4
20260506121958 23 180 1.6 1.6 0.00 0.00 0.00 40 1006.5
20260506120958 23 180 0.0 1.6 0.00 0.00 0.00 40 1006.8
20260506115958 23 180 4.8 4.8 0.00 0.00 0.00 39 1006.9
20260506114958 24 180 6.4 6.4 0.00 0.00 0.00 39 1006.9
20260506113958 25 180 0.0 6.4 0.00 0.00 0.00 39 1007.0
20260506112959 25 180 3.2 3.2 0.00 0.00 0.00 39 1007.2
20260506111958 25 157 6.4 6.4 0.00 0.00 0.00 40 1007.3
20260506110959 25 157 6.4 6.4 0.00 0.00 0.00 41 1007.4
20260506105959 25 157 0.0 3.2 0.00 0.00 0.00 41 1007.5
20260506104959 25 202 0.0 3.2 0.00 0.00 0.00 42 1007.7
20260506103959 24 0 0.0 0.0 0.00 0.00 0.00 42 1008.0
20260506102959 23 180 3.2 4.8 0.00 0.00 0.00 42 1008.1
20260506101959 23 292 0.0 1.6 0.00 0.00 0.00 42 1008.1
20260506100959 24 157 0.0 3.2 0.00 0.00 0.00 42 1008.2
20260506095959 23 315 0.0 1.6 0.00 0.00 0.00 43 1008.3
20260506094959 23 247 4.8 4.8 0.00 0.00 0.00 42 1008.3
20260506093959 23 202 0.0 0.0 0.00 0.00 0.00 42 1008.5
20260506092959 23 157 3.2 3.2 0.00 0.00 0.00 43 1008.5
20260506091959 23 180 0.0 0.0 0.00 0.00 0.00 44 1008.7
20260506090959 23 337 1.6 1.6 0.00 0.00 0.00 44 1008.7
20260506085959 23 157 0.0 9.7 0.00 0.00 0.00 44 1008.6
20260506084959 23 315 0.0 1.6 0.00 0.00 0.00 43 1008.8
20260506083959 23 270 0.0 0.0 0.00 0.00 0.00 45 1008.7
20260506082959 22 180 0.0 0.0 0.00 0.00 0.00 47 1008.7
20260506081959 22 157 0.0 3.2 0.00 0.00 0.00 46 1008.7
20260506080959 22 157 0.0 0.0 0.00 0.00 0.00 47 1008.9
20260506072959 21 247 0.0 0.0 0.00 0.00 0.00 52 1009.1
20260506071959 20 247 0.0 0.0 0.00 0.00 0.00 53 1009.1
20260506070959 20 292 0.0 0.0 0.00 0.00 0.00 54 1009.1
20260506061959 18 315 0.0 0.0 0.00 0.00 0.00 59 1009.5
20260506060959 17 315 0.0 0.0 0.00 0.00 0.00 62 1009.5
20260506050959 16 315 0.0 0.0 0.00 0.00 0.00 65 1009.5
20260506044959 16 315 0.0 0.0 0.00 0.00 0.00 64 1009.5
20260506043959 16 315 0.0 0.0 0.00 0.00 0.00 64 1009.4
20260506042959 16 315 0.0 0.0 0.00 0.00 0.00 64 1009.3
20260506041959 16 315 0.0 0.0 0.00 0.00 0.00 64 1009.1
20260506040959 16 315 0.0 0.0 0.00 0.00 0.00 63 1009.2
20260506035959 16 315 0.0 0.0 0.00 0.00 0.00 63 1009.1
20260506034959 16 315 0.0 0.0 0.00 0.00 0.00 63 1009.1
20260506033959 16 315 0.0 0.0 0.00 0.00 0.00 63 1009.0
20260506032959 16 315 0.0 0.0 0.00 0.00 0.00 63 1009.0
20260506031959 16 315 0.0 1.6 0.00 0.00 0.00 63 1008.9
20260506030959 16 315 0.0 3.2 0.00 0.00 0.00 63 1008.8
20260506025959 16 315 0.0 3.2 0.00 0.00 0.00 63 1008.8
20260506024959 16 337 0.0 0.0 0.00 0.00 0.00 63 1008.9
20260506023959 16 270 0.0 0.0 0.00 0.00 0.00 63 1008.8
20260506022959 16 292 0.0 0.0 0.00 0.00 0.00 63 1008.8
20260506021959 16 292 0.0 0.0 0.00 0.00 0.00 63 1008.8
20260506020959 16 270 0.0 0.0 0.00 0.00 0.00 63 1008.7
20260506015959 16 337 0.0 0.0 0.00 0.00 0.00 63 1008.6
20260506014959 16 247 0.0 0.0 0.00 0.00 0.00 63 1008.6
20260506013959 16 247 0.0 0.0 0.00 0.00 0.00 63 1008.5
20260506012959 16 315 0.0 0.0 0.00 0.00 0.00 63 1008.5
20260506011959 16 315 1.6 3.2 0.00 0.00 0.00 62 1008.3
20260506010959 16 0 0.0 0.0 0.00 0.00 0.00 63 1008.2
20260506005959 16 225 0.0 1.6 0.00 0.00 0.00 63 1008.2
20260506004959 16 337 0.0 8.0 0.00 0.00 0.00 63 1008.1
20260506004000 16 270 0.0 1.6 0.00 0.00 0.00 63 1008.1
20260506002959 15 315 0.0 3.2 0.00 0.00 0.00 63 1008.0
20260506001959 15 315 0.0 0.0 0.00 0.00 0.00 62 1007.9
20260506000959 15 180 0.0 0.0 0.00 0.00 0.00 61 1007.8
20260505235959 15 180 0.0 0.0 0.00 0.00 0.00 60 1007.7
20260505235000 15 180 0.0 0.0 0.00 0.00 0.00 60 1007.7
20260505234000 15 180 0.0 0.0 0.00 0.00 0.00 60 1007.6
20260505233000 15 180 0.0 0.0 0.00 0.00 0.00 60 1007.5
20260505232000 15 180 0.0 0.0 0.00 0.00 0.00 60 1007.5
20260505231000 15 180 0.0 0.0 0.00 0.00 0.00 60 1007.5
20260505230000 15 180 0.0 0.0 0.00 0.00 0.00 59 1007.3
20260505225000 15 180 0.0 0.0 0.00 0.00 0.00 59 1007.3
20260505224000 15 180 0.0 0.0 0.00 0.00 0.00 58 1007.1
20260505223000 15 180 0.0 0.0 0.00 0.00 0.00 57 1006.9
20260505222000 15 180 0.0 0.0 0.00 0.00 0.00 57 1006.9
20260505221000 16 180 0.0 0.0 0.00 0.00 0.00 56 1006.7
20260505220000 16 180 0.0 0.0 0.00 0.00 0.00 55 1006.7
20260505215000 16 180 0.0 0.0 0.00 0.00 0.00 55 1006.6
20260505214000 16 180 0.0 0.0 0.00 0.00 0.00 54 1006.6
20260505213000 16 180 0.0 0.0 0.00 0.00 0.00 54 1006.5
20260505212000 17 180 0.0 0.0 0.00 0.00 0.00 54 1006.3
20260505211000 17 180 0.0 0.0 0.00 0.00 0.00 53 1006.2
20260505210000 17 180 0.0 0.0 0.00 0.00 0.00 52 1006.2
20260505205000 17 180 0.0 0.0 0.00 0.00 0.00 51 1006.4
20260505204000 18 157 0.0 0.0 0.00 0.00 0.00 50 1006.2
20260505203000 18 157 0.0 0.0 0.00 0.00 0.00 49 1005.9
20260505202000 18 157 0.0 0.0 0.00 0.00 0.00 49 1005.7
20260505201000 19 157 0.0 0.0 0.00 0.00 0.00 48 1005.7
20260505200000 19 157 0.0 0.0 0.00 0.00 0.00 48 1005.5
20260505195000 19 157 0.0 0.0 0.00 0.00 0.00 47 1005.5
20260505194000 19 157 0.0 0.0 0.00 0.00 0.00 47 1005.5
20260505193000 20 157 0.0 0.0 0.00 0.00 0.00 46 1005.5
20260505192000 20 157 0.0 0.0 0.00 0.00 0.00 46 1005.4
20260505191000 20 157 0.0 0.0 0.00 0.00 0.00 45 1005.4
20260505190000 20 180 0.0 0.0 0.00 0.00 0.00 44 1005.4
20260505185000 20 180 0.0 0.0 0.00 0.00 0.00 44 1005.4
20260505184000 20 180 0.0 0.0 0.00 0.00 0.00 43 1005.3
20260505183000 21 157 3.2 3.2 0.00 0.00 0.00 42 1005.2
20260505182000 21 157 0.0 0.0 0.00 0.00 0.00 42 1005.2
20260505181000 21 157 0.0 0.0 0.00 0.00 0.00 41 1005.2
20260505180000 21 157 3.2 3.2 0.00 0.00 0.00 40 1005.1
20260505175000 22 180 3.2 3.2 0.00 0.00 0.00 40 1005.2
20260505174000 22 270 0.0 0.0 0.00 0.00 0.00 40 1005.1
20260505173000 22 202 0.0 0.0 0.00 0.00 0.00 39 1005.0
20260505172000 22 180 0.0 0.0 0.00 0.00 0.00 39 1005.1
20260505171000 23 315 0.0 0.0 0.00 0.00 0.00 38 1005.1
20260505170000 23 157 0.0 0.0 0.00 0.00 0.00 38 1005.3
20260505165000 23 157 0.0 0.0 0.00 0.00 0.00 38 1005.4
20260505164000 23 157 0.0 0.0 0.00 0.00 0.00 37 1005.4
20260505163000 23 180 0.0 6.4 0.00 0.00 0.00 36 1005.4
20260505162000 24 180 3.2 3.2 0.00 0.00 0.00 36 1005.4
20260505161000 25 202 3.2 3.2 0.00 0.00 0.00 35 1005.4